TimeCST,TemperatureF,Dew PointF,Humidity,Sea Level PressureIn,VisibilityMPH,Wind Direction,Wind SpeedMPH,Gust SpeedMPH,PrecipitationIn,Events,Conditions,WindDirDegrees,DateUTC
12:15 AM,42.3,36.3,79,30.20,10.0,Calm,Calm,-,N/A,,Clear,0,2013-02-10 06:15:00
12:35 AM,47.3,38.3,71,30.20,10.0,Calm,Calm,-,N/A,,Clear,0,2013-02-10 06:35:00
12:55 AM,49.6,37.2,62,30.20,10.0,SE,4.6,-,N/A,,Clear,130,2013-02-10 06:55:00
1:15 AM,50.0,36.0,59,30.19,10.0,ESE,4.6,-,N/A,,Clear,120,2013-02-10 07:15:00
1:35 AM,50.9,36.3,57,30.20,10.0,SE,3.5,-,N/A,,Clear,130,2013-02-10 07:35:00
1:55 AM,50.9,36.5,58,30.19,10.0,ESE,5.8,-,N/A,,Clear,120,2013-02-10 07:55:00
2:15 AM,50.9,36.1,57,30.20,10.0,Calm,Calm,-,N/A,,Clear,0,2013-02-10 08:15:00
2:35 AM,50.4,35.8,57,30.20,10.0,Calm,Calm,-,N/A,,Clear,0,2013-02-10 08:35:00
2:55 AM,49.6,34.9,57,30.20,10.0,East,3.5,-,N/A,,Clear,90,2013-02-10 08:55:00
3:15 AM,49.6,36.7,61,30.20,10.0,Calm,Calm,-,N/A,,Clear,0,2013-02-10 09:15:00
3:55 AM,49.6,36.1,60,30.21,10.0,Calm,Calm,-,N/A,,Clear,0,2013-02-10 09:55:00
4:15 AM,49.6,39.0,67,30.21,10.0,East,3.5,-,N/A,,Clear,100,2013-02-10 10:15:00
4:35 AM,49.6,36.9,61,30.20,10.0,East,3.5,-,N/A,,Clear,100,2013-02-10 10:35:00
4:55 AM,49.6,36.1,60,30.20,10.0,Calm,Calm,-,N/A,,Clear,0,2013-02-10 10:55:00
5:15 AM,49.6,35.4,58,30.20,10.0,ESE,3.5,-,N/A,,Clear,110,2013-02-10 11:15:00
5:35 AM,49.6,33.8,54,30.19,10.0,ESE,5.8,-,N/A,,Clear,120,2013-02-10 11:35:00
5:55 AM,49.6,32.2,51,30.20,10.0,ESE,4.6,-,N/A,,Clear,120,2013-02-10 11:55:00
6:15 AM,49.6,31.5,50,30.19,10.0,ESE,6.9,-,N/A,,Clear,110,2013-02-10 12:15:00
6:35 AM,49.6,30.6,48,30.18,10.0,ESE,5.8,-,N/A,,Clear,110,2013-02-10 12:35:00
6:55 AM,49.6,29.8,47,30.20,10.0,East,4.6,-,N/A,,Clear,90,2013-02-10 12:55:00
7:15 AM,49.6,29.3,46,30.20,10.0,East,5.8,-,N/A,,Clear,90,2013-02-10 13:15:00
7:35 AM,51.3,30.7,45,30.20,10.0,East,4.6,-,N/A,,Clear,90,2013-02-10 13:35:00
7:55 AM,52.2,32.0,46,30.19,10.0,ESE,8.1,-,N/A,,Scattered Clouds,110,2013-02-10 13:55:00
8:15 AM,54.7,35.4,48,30.19,10.0,ESE,6.9,-,N/A,,Scattered Clouds,110,2013-02-10 14:15:00
8:35 AM,57.2,39.9,52,30.19,10.0,SE,10.4,19.6,N/A,,Mostly Cloudy,130,2013-02-10 14:35:00
8:55 AM,59.9,42.8,53,30.19,10.0,SE,8.1,-,N/A,,Scattered Clouds,130,2013-02-10 14:55:00
9:15 AM,59.9,44.1,56,30.18,10.0,SE,11.5,19.6,N/A,,Scattered Clouds,130,2013-02-10 15:15:00
9:35 AM,59.9,44.2,56,30.18,10.0,SE,8.1,18.4,N/A,,Mostly Cloudy,130,2013-02-10 15:35:00
9:55 AM,59.9,45.0,58,30.19,10.0,SE,9.2,19.6,N/A,,Mostly Cloudy,140,2013-02-10 15:55:00
10:15 AM,59.9,45.1,58,30.18,10.0,SSE,11.5,16.1,N/A,,Overcast,150,2013-02-10 16:15:00
10:35 AM,59.9,45.1,58,30.17,10.0,SE,8.1,-,N/A,Thunderstorm,Mostly Cloudy,140,2013-02-10 16:35:00
10:55 AM,60.1,45.7,59,30.16,10.0,SE,8.1,-,N/A,,Mostly Cloudy,140,2013-02-10 16:55:00
11:15 AM,61.0,46.9,60,30.16,10.0,SE,8.1,16.1,N/A,,Mostly Cloudy,140,2013-02-10 17:15:00
11:35 AM,61.0,47.7,62,30.13,10.0,SE,8.1,17.3,N/A,,Mostly Cloudy,140,2013-02-10 17:35:00
11:55 AM,61.0,48.0,62,30.12,10.0,SSE,8.1,-,N/A,,Mostly Cloudy,150,2013-02-10 17:55:00
12:15 PM,60.3,49.5,68,30.09,10.0,SE,10.4,-,N/A,Rain-Thunderstorm,Light Thunderstorms and Rain,140,2013-02-10 18:15:00
12:35 PM,61.0,49.3,65,30.09,10.0,SE,9.2,-,N/A,Rain,Light Rain,130,2013-02-10 18:35:00
12:55 PM,59.9,52.3,76,30.07,10.0,SE,4.6,-,0.01,Rain,Light Rain,140,2013-02-10 18:55:00
1:15 PM,61.0,52.7,74,30.06,10.0,SE,3.5,-,N/A,,Overcast,130,2013-02-10 19:15:00
1:35 PM,61.7,52.2,71,30.04,10.0,ESE,8.1,-,N/A,Thunderstorm,Mostly Cloudy,120,2013-02-10 19:35:00
1:55 PM,62.6,51.8,68,30.05,10.0,SSE,6.9,16.1,N/A,,Mostly Cloudy,150,2013-02-10 19:55:00
2:15 PM,61.5,54.1,77,30.02,7.0,SSE,9.2,-,0.01,Rain,Light Rain,150,2013-02-10 20:15:00
2:35 PM,61.0,54.7,80,30.02,10.0,SSE,6.9,-,0.01,,Light Drizzle,160,2013-02-10 20:35:00
2:55 PM,61.3,54.9,79,30.01,10.0,SSE,4.6,-,0.01,,Light Drizzle,160,2013-02-10 20:55:00
3:15 PM,62.2,55.6,79,30.01,10.0,SSE,5.8,-,N/A,,Overcast,150,2013-02-10 21:15:00
3:35 PM,62.2,55.0,77,29.99,10.0,SSE,6.9,-,N/A,Rain,Light Rain,150,2013-02-10 21:35:00
3:55 PM,62.6,55.4,77,29.98,10.0,SSE,5.8,-,N/A,Rain,Light Rain,150,2013-02-10 21:55:00
4:15 PM,62.2,56.7,82,29.99,7.0,South,5.8,-,0.02,Rain,Rain,180,2013-02-10 22:15:00
4:35 PM,59.9,55.4,85,30.06,1.8,WNW,18.4,26.5,0.23,Rain-Thunderstorm,Heavy Thunderstorms and Rain,300,2013-02-10 22:35:00
4:55 PM,59.9,55.9,87,30.09,1.5,WNW,5.8,-,0.53,Rain-Thunderstorm,Thunderstorms and Rain,290,2013-02-10 22:55:00
5:15 PM,59.9,56.3,88,30.07,7.0,NNW,8.1,-,0.07,Rain-Thunderstorm,Thunderstorms and Rain,330,2013-02-10 23:15:00
5:35 PM,59.9,56.3,88,30.08,7.0,NE,3.5,-,0.12,Rain-Thunderstorm,Rain,50,2013-02-10 23:35:00
5:55 PM,59.9,56.5,88,30.10,4.0,Calm,Calm,-,0.21,Rain-Thunderstorm,Rain,0,2013-02-10 23:55:00
6:15 PM,57.9,54.5,88,30.10,3.0,NNE,4.6,-,0.10,Rain,Heavy Rain,20,2013-02-11 00:15:00
6:35 PM,57.7,54.7,90,30.10,4.0,Calm,Calm,-,0.20,Rain,Heavy Rain,0,2013-02-11 00:35:00
6:55 PM,57.7,54.7,90,30.10,4.0,ENE,3.5,-,0.30,Rain,Heavy Rain,70,2013-02-11 00:55:00
7:15 PM,57.7,54.7,90,30.12,4.0,Calm,Calm,-,0.08,Rain-Thunderstorm,Heavy Thunderstorms and Rain,0,2013-02-11 01:15:00
7:35 PM,57.4,54.3,90,30.10,4.0,East,4.6,-,0.17,Rain,Rain,90,2013-02-11 01:35:00
7:55 PM,58.6,55.6,90,30.09,7.0,East,6.9,-,0.23,Rain-Thunderstorm,Light Thunderstorms and Rain,80,2013-02-11 01:55:00
8:15 PM,58.1,55.0,90,30.08,7.0,East,6.9,-,0.07,Rain,Rain,100,2013-02-11 02:15:00
8:35 PM,58.8,55.8,90,30.07,10.0,East,5.8,-,N/A,Rain,Light Rain,90,2013-02-11 02:35:00
8:55 PM,58.3,55.2,90,30.07,10.0,East,4.6,-,0.11,Rain,Light Rain,100,2013-02-11 02:55:00
9:15 PM,59.9,56.7,89,30.05,10.0,ENE,4.6,-,0.02,Rain,Rain,60,2013-02-11 03:15:00
9:35 PM,59.9,56.7,89,30.07,10.0,SSE,6.9,-,0.03,Rain,Light Rain,150,2013-02-11 03:35:00
9:55 PM,59.9,56.7,89,30.06,5.0,East,4.6,-,N/A,Rain,Rain,90,2013-02-11 03:55:00
10:15 PM,59.9,56.7,89,30.07,10.0,ESE,5.8,-,0.04,Rain,Rain,110,2013-02-11 04:15:00
10:35 PM,59.7,56.5,89,30.08,7.0,SSE,4.6,-,0.10,Rain,Rain,150,2013-02-11 04:35:00
10:55 PM,57.7,54.7,90,30.05,7.0,ESE,8.1,-,0.17,Rain,Rain,120,2013-02-11 04:55:00
11:15 PM,58.1,55.0,90,30.06,10.0,SE,3.5,-,0.01,,Drizzle,140,2013-02-11 05:15:00
11:35 PM,58.8,55.8,90,30.05,10.0,SE,4.6,-,0.01,Rain,Light Rain,130,2013-02-11 05:35:00
11:55 PM,59.9,56.7,89,30.05,10.0,ESE,4.6,-,N/A,Rain,Light Rain,120,2013-02-11 05:55:00